Topeka, KS

1:39 PM CDT on April 25, 2017 (GMT -0500)
Billard Municipal

Weather History for KTOP - December, 2012

Change the Weather History Date:

Monday, December 3, 2012

  Actual Average Record
Temperature  
Mean Temperature 62 °F 35 °F  
Max Temperature 74 °F 45 °F 74 °F (2012)
Min Temperature 49 °F 25 °F 5 °F (1893)
Degree Days  
Heating Degree Days 3 30  
Month to date heating degree days 28 88  
Since 1 July heating degree days 915 1082  
Cooling Degree Days 0 0  
Month to date cooling degree days 0 0  
Year to date cooling degree days 1978 1422  
Growing Degree Days 11 (Base 50)    
Moisture  
Dew Point 48 °F    
Average Humidity 62    
Maximum Humidity 84    
Minimum Humidity 39    
Precipitation  
Precipitation 0.00 in 0.05 in 2.13 in (1947)
Month to date precipitation T 0.16  
Year to date precipitation 22.27 35.27  
Snow  
Snow 0.00 in 0.20 in 4.80 in (1921)
Month to date snowfall 0.0 0.4  
Year to date snowfall 3.0 13.0  
Since 1 July snowfall 0.0 1.7  
Snow Depth 0.00 in    
Sea Level Pressure  
Sea Level Pressure 29.82 in    
Wind  
Wind Speed 13 mph (WSW)    
Max Wind Speed 25 mph    
Max Gust Speed 37 mph    
Visibility 10 miles    
Events      
T = Trace of Precipitation, MM = Missing Value Source: NWS Daily Summary

Daily Weather History Graph

Daily Weather History Graph

Search for Another Location

Airport or City:

Trip Planner

Search our weather history database for the weather conditions in past years. The results will help you decide how hot, cold, wet, or windy it might be!

Date:

Astronomy

Dec. 03, 2012 Rise Set
Actual Time 7:24 AM CST 4:59 PM CST
Civil Twilight 6:55 AM CST 5:29 PM CST
Nautical Twilight 6:22 AM CST 6:02 PM CST
Astronomical Twilight 5:49 AM CST 6:35 PM CST
Moon 9:46 PM CST (12/3) 10:49 AM CST (12/3)
Length of Visible Light 10h 34m
Length of Day
9h 34m
Waning Gibbous, 78% of the Moon is Illuminated
Dec 3
Waning Gibbous
Dec 6
Last Quarter
Dec 13
New
Dec 19
First Quarter
Dec 28
Full

Hourly Weather History & Observations

Time (CST) Temp. Dew Point Humidity Pressure Visibility Wind Dir Wind Speed Gust Speed Precip Events Conditions
12:53 AM 62.1 °F 55.0 °F 78% 29.77 in 10.0 mi South 12.7 mph - N/A   Clear
1:53 AM 63.0 °F 57.0 °F 81% 29.75 in 10.0 mi South 16.1 mph 21.9 mph N/A   Clear
2:53 AM 64.9 °F 57.0 °F 75% 29.72 in 10.0 mi South 18.4 mph 25.3 mph N/A   Clear
3:53 AM 64.9 °F 57.0 °F 75% 29.69 in 10.0 mi South 19.6 mph 29.9 mph N/A   Clear
4:53 AM 66.0 °F 57.9 °F 75% 29.68 in 10.0 mi South 16.1 mph 24.2 mph N/A   Clear
5:53 AM 64.9 °F 57.0 °F 75% 29.68 in 10.0 mi South 17.3 mph 31.1 mph N/A   Clear
6:53 AM 64.9 °F 57.0 °F 75% 29.68 in 10.0 mi South 13.8 mph 32.2 mph N/A   Clear
7:53 AM 64.9 °F 57.0 °F 75% 29.69 in 10.0 mi South 18.4 mph 28.8 mph N/A   Clear
8:49 AM 66.2 °F 57.2 °F 73% 29.71 in 10.0 mi SSW 21.9 mph 29.9 mph N/A   Mostly Cloudy
8:53 AM 66.2 °F 57.2 °F 73% 29.71 in 10.0 mi SSW 18.4 mph 29.9 mph N/A   Mostly Cloudy
9:53 AM 68.0 °F 57.0 °F 68% 29.72 in 10.0 mi SSW 20.7 mph 33.4 mph N/A   Mostly Cloudy
10:01 AM 68.0 °F 57.2 °F 68% 29.72 in 10.0 mi SSW 12.7 mph 31.1 mph N/A   Mostly Cloudy
10:53 AM 71.1 °F 55.9 °F 59% 29.73 in 10.0 mi SW 19.6 mph 26.5 mph N/A   Scattered Clouds
11:53 AM 72.0 °F 52.0 °F 49% 29.73 in 10.0 mi SSW 19.6 mph 29.9 mph N/A   Partly Cloudy
12:53 PM 73.0 °F 50.0 °F 44% 29.75 in 10.0 mi WSW 11.5 mph 21.9 mph N/A   Mostly Cloudy
1:53 PM 72.0 °F 48.9 °F 44% 29.76 in 10.0 mi West 8.1 mph 16.1 mph N/A   Clear
2:51 PM 68.0 °F 42.8 °F 40% 29.80 in 10.0 mi NW 16.1 mph - N/A   Clear
2:53 PM 68.0 °F 42.1 °F 39% 29.79 in 10.0 mi WNW 16.1 mph - N/A   Clear
3:53 PM 62.1 °F 39.9 °F 44% 29.85 in 10.0 mi NNW 12.7 mph - N/A   Clear
4:53 PM 59.0 °F 41.0 °F 51% 29.89 in 10.0 mi NW 5.8 mph - N/A   Clear
5:53 PM 55.9 °F 41.0 °F 57% 29.93 in 10.0 mi NW 5.8 mph - N/A   Clear
6:53 PM 54.0 °F 41.0 °F 62% 29.96 in 10.0 mi WNW 4.6 mph - N/A   Clear
7:53 PM 53.1 °F 39.0 °F 59% 29.99 in 10.0 mi NNW 6.9 mph - N/A   Clear
8:53 PM 54.0 °F 36.0 °F 51% 30.01 in 10.0 mi NNW 9.2 mph - N/A   Clear
9:53 PM 54.0 °F 34.0 °F 47% 30.03 in 10.0 mi NNW 6.9 mph - N/A   Clear
10:53 PM 53.1 °F 33.1 °F 47% 30.04 in 10.0 mi NW 5.8 mph - N/A   Clear
11:53 PM 48.2 °F 33.8 °F 58% 30.08 in 10.0 mi West 4.6 mph - N/A   Clear